Location: ČR
(50.0000°N, 15.0000°E)
Time: 21:59:48
(UTC+00:00)

Vanguard 3 - Pass Details

Date: 25 October 2021
Orbit: 508 x 3260 km, 33.4° (Epoch: 04 December)

Event Time Altitude Azimuth Distance (km) Brightness Sun altitude
Rises 16:44:09 0° 232° (SW) 3,400 11.5 -9.4°
Reaches altitude 10° 16:46:44 10° 217° (SW) 2,749 10.5 -9.9°
Maximum altitude 16:52:01 24° 166° (SSE) 2,455 9.5 -10.7°
Drops below altitude 10° 16:59:52 10° 118° (ESE) 4,254 10.3 -12.0°
Enters shadow 17:01:16 - 115° (ESE) 4,660 10.5 -12.2°
Sets 17:05:08 0° 108° (ESE) 5,791 - -12.8°
